Time,TemperatureF,DewpointF,PressureIn,WindDirection,WindDirectionDegrees,WindSpeedMPH,WindSpeedGustMPH,Humidity,HourlyPrecipIn,Conditions,Clouds,dailyrainin,SoftwareType,DateUTC
2013-11-10 00:00:00,38.3,25.2,30.14,NW,315,12.8,12.8,59,0.00,,,0.00,WUHU216HW,2013-11-10 06:00:00,
2013-11-10 00:05:00,38.3,25.2,30.13,West,270,10.1,12.8,59,0.00,,,0.00,WUHU216HW,2013-11-10 06:05:00,
2013-11-10 00:06:00,38.3,25.2,30.13,West,270,10.1,12.8,59,0.00,,,0.00,WUHU216HW,2013-11-10 06:06:00,
2013-11-10 00:10:00,38.3,25.2,30.13,West,270,10.1,10.1,59,0.00,,,0.00,WUHU216HW,2013-11-10 06:10:00,
2013-11-10 00:30:00,38.5,25.4,30.15,WNW,293,8.5,8.5,59,0.00,,,0.00,WUHU216HW,2013-11-10 06:30:00,
2013-11-10 00:35:00,38.5,25.4,30.15,WNW,293,8.5,8.5,59,0.00,,,0.00,WUHU216HW,2013-11-10 06:35:00,
2013-11-10 00:36:00,38.5,25.4,30.15,WNW,293,8.5,8.5,59,0.00,,,0.00,WUHU216HW,2013-11-10 06:36:00,
2013-11-10 00:40:00,38.5,25.4,30.15,WNW,293,8.5,8.5,59,0.00,,,0.00,WUHU216HW,2013-11-10 06:40:00,
2013-11-10 01:00:00,38.3,26.0,30.16,NW,315,20.1,20.1,61,0.00,,,0.00,WUHU216HW,2013-11-10 07:00:00,
2013-11-10 01:05:00,38.3,25.7,30.16,NW,315,10.5,20.1,60,0.00,,,0.00,WUHU216HW,2013-11-10 07:05:00,
2013-11-10 01:06:00,38.3,25.7,30.16,NW,315,10.5,20.1,60,0.00,,,0.00,WUHU216HW,2013-11-10 07:06:00,
2013-11-10 01:10:00,38.3,25.7,30.16,NW,315,10.5,10.5,60,0.00,,,0.00,WUHU216HW,2013-11-10 07:10:00,
2013-11-10 01:30:00,38.0,25.8,30.17,NW,315,13.2,13.2,61,0.00,,,0.00,WUHU216HW,2013-11-10 07:30:00,
2013-11-10 01:31:00,38.2,25.8,30.17,NW,315,13.2,13.2,61,0.00,,,0.00,WUHU216HW,2013-11-10 07:31:00,
2013-11-10 01:35:00,38.2,25.8,30.17,NW,315,13.2,13.2,61,0.00,,,0.00,WUHU216HW,2013-11-10 07:35:00,
2013-11-10 01:36:00,38.2,25.8,30.17,NW,315,13.2,13.2,61,0.00,,,0.00,WUHU216HW,2013-11-10 07:36:00,
2013-11-10 01:37:00,38.2,25.8,30.17,NW,315,13.2,13.2,61,0.00,,,0.00,WUHU216HW,2013-11-10 07:37:00,
2013-11-10 01:40:00,38.2,25.8,30.17,NW,315,13.2,13.2,61,0.00,,,0.00,WUHU216HW,2013-11-10 07:40:00,
2013-11-10 02:00:00,38.0,25.8,30.17,North,0,11.4,11.4,61,0.00,,,0.00,WUHU216HW,2013-11-10 08:00:00,
2013-11-10 02:05:00,38.0,25.8,30.17,NNW,338,6.9,11.4,61,0.00,,,0.00,WUHU216HW,2013-11-10 08:05:00,
2013-11-10 02:10:00,38.0,25.8,30.17,NNW,338,6.9,9.8,61,0.00,,,0.00,WUHU216HW,2013-11-10 08:10:00,
2013-11-10 02:30:00,37.8,25.6,30.19,WSW,248,10.5,10.5,61,0.00,,,0.00,WUHU216HW,2013-11-10 08:30:00,
2013-11-10 02:31:00,37.8,25.6,30.19,NW,315,15.0,15.0,61,0.00,,,0.00,WUHU216HW,2013-11-10 08:31:00,
2013-11-10 02:35:00,37.8,25.6,30.19,NW,315,15.0,15.0,61,0.00,,,0.00,WUHU216HW,2013-11-10 08:35:00,
2013-11-10 02:36:00,37.8,25.6,30.19,NW,315,15.0,15.0,61,0.00,,,0.00,WUHU216HW,2013-11-10 08:36:00,
2013-11-10 03:00:00,37.6,25.4,30.21,North,0,1.8,1.8,61,0.00,,,0.00,WUHU216HW,2013-11-10 09:00:00,
2013-11-10 03:05:00,37.6,25.4,30.20,North,0,6.0,6.0,61,0.00,,,0.00,WUHU216HW,2013-11-10 09:05:00,
2013-11-10 03:10:00,37.6,25.4,30.20,North,0,6.0,6.0,61,0.00,,,0.00,WUHU216HW,2013-11-10 09:10:00,
2013-11-10 03:30:00,37.4,24.8,30.21,NNW,338,5.4,5.4,60,0.00,,,0.00,WUHU216HW,2013-11-10 09:30:00,
2013-11-10 03:31:00,37.4,24.8,30.21,WNW,293,6.9,6.9,60,0.00,,,0.00,WUHU216HW,2013-11-10 09:31:00,
2013-11-10 03:35:00,37.4,24.8,30.21,WNW,293,6.9,6.9,60,0.00,,,0.00,WUHU216HW,2013-11-10 09:35:00,
2013-11-10 03:36:00,37.4,24.8,30.21,WNW,293,6.9,6.9,60,0.00,,,0.00,WUHU216HW,2013-11-10 09:36:00,
2013-11-10 03:37:00,37.4,24.8,30.21,WNW,293,6.9,6.9,60,0.00,,,0.00,WUHU216HW,2013-11-10 09:37:00,
2013-11-10 03:40:00,37.4,24.8,30.21,WNW,293,6.9,6.9,60,0.00,,,0.00,WUHU216HW,2013-11-10 09:40:00,
2013-11-10 04:00:00,37.4,24.8,30.21,NW,315,4.7,4.7,60,0.00,,,0.00,WUHU216HW,2013-11-10 10:00:00,
2013-11-10 04:05:00,37.4,24.8,30.21,NNW,338,3.6,4.7,60,0.00,,,0.00,WUHU216HW,2013-11-10 10:05:00,
2013-11-10 04:06:00,37.4,24.8,30.21,NNW,338,3.6,4.7,60,0.00,,,0.00,WUHU216HW,2013-11-10 10:06:00,
2013-11-10 04:10:00,37.4,24.8,30.21,NNW,338,3.6,3.6,60,0.00,,,0.00,WUHU216HW,2013-11-10 10:10:00,
2013-11-10 04:30:00,37.1,24.5,30.22,WNW,293,3.1,3.1,60,0.00,,,0.00,WUHU216HW,2013-11-10 10:30:00,
2013-11-10 04:31:00,37.1,24.5,30.22,West,270,3.6,3.6,60,0.00,,,0.00,WUHU216HW,2013-11-10 10:31:00,
2013-11-10 04:35:00,37.1,24.5,30.22,West,270,3.6,3.6,60,0.00,,,0.00,WUHU216HW,2013-11-10 10:35:00,
2013-11-10 04:36:00,37.1,24.5,30.22,West,270,3.6,3.6,60,0.00,,,0.00,WUHU216HW,2013-11-10 10:36:00,
2013-11-10 04:40:00,37.1,24.5,30.22,West,270,3.6,3.6,60,0.00,,,0.00,WUHU216HW,2013-11-10 10:40:00,
2013-11-10 05:00:00,36.4,23.9,30.24,WNW,293,2.9,2.9,60,0.00,,,0.00,WUHU216HW,2013-11-10 11:00:00,
2013-11-10 05:01:00,36.4,23.9,30.24,WNW,288,2.5,2.9,60,0.00,,,0.00,WUHU216HW,2013-11-10 11:01:00,
2013-11-10 05:05:00,36.4,23.9,30.24,West,270,1.8,2.9,60,0.00,,,0.00,WUHU216HW,2013-11-10 11:05:00,
2013-11-10 05:06:00,36.4,23.9,30.24,West,270,1.8,2.9,60,0.00,,,0.00,WUHU216HW,2013-11-10 11:06:00,
2013-11-10 05:10:00,36.4,23.9,30.24,West,270,1.8,2.9,60,0.00,,,0.00,WUHU216HW,2013-11-10 11:10:00,
2013-11-10 05:30:00,35.8,23.4,30.24,WNW,293,2.0,2.0,60,0.00,,,0.00,WUHU216HW,2013-11-10 11:30:00,
2013-11-10 05:31:00,35.6,23.2,30.24,WNW,293,2.2,2.5,60,0.00,,,0.00,WUHU216HW,2013-11-10 11:31:00,
2013-11-10 05:35:00,35.6,23.2,30.24,WNW,293,2.0,2.5,60,0.00,,,0.00,WUHU216HW,2013-11-10 11:35:00,
2013-11-10 05:36:00,35.6,23.2,30.24,WNW,293,2.0,2.5,60,0.00,,,0.00,WUHU216HW,2013-11-10 11:36:00,
2013-11-10 05:37:00,35.6,23.2,30.24,WNW,293,2.0,2.5,60,0.00,,,0.00,WUHU216HW,2013-11-10 11:37:00,
2013-11-10 05:40:00,35.6,23.2,30.24,WNW,293,2.0,2.0,60,0.00,,,0.00,WUHU216HW,2013-11-10 11:40:00,
2013-11-10 06:00:00,34.9,22.9,30.24,NW,315,1.6,1.6,61,0.00,,,0.00,WUHU216HW,2013-11-10 12:00:00,
2013-11-10 06:05:00,34.9,22.9,30.24,WNW,293,1.1,1.6,61,0.00,,,0.00,WUHU216HW,2013-11-10 12:05:00,
2013-11-10 06:06:00,34.9,22.9,30.24,WNW,293,1.1,1.6,61,0.00,,,0.00,WUHU216HW,2013-11-10 12:06:00,
2013-11-10 06:10:00,34.9,22.9,30.24,WNW,293,1.1,1.1,61,0.00,,,0.00,WUHU216HW,2013-11-10 12:10:00,
2013-11-10 06:30:00,33.5,21.4,30.24,SSW,203,0.7,0.7,61,0.00,,,0.00,WUHU216HW,2013-11-10 12:30:00,
2013-11-10 06:31:00,33.5,21.4,30.24,SSW,203,0.5,0.7,61,0.00,,,0.00,WUHU216HW,2013-11-10 12:31:00,
2013-11-10 06:35:00,33.5,21.4,30.24,SSW,203,0.4,0.7,61,0.00,,,0.00,WUHU216HW,2013-11-10 12:35:00,
2013-11-10 06:36:00,33.5,21.4,30.24,SSW,203,0.4,0.7,61,0.00,,,0.00,WUHU216HW,2013-11-10 12:36:00,
2013-11-10 06:40:00,33.5,21.4,30.24,SSW,203,0.4,0.4,61,0.00,,,0.00,WUHU216HW,2013-11-10 12:40:00,
2013-11-10 07:00:00,31.5,18.8,30.25,SSW,203,1.1,1.1,59,0.00,,,0.00,WUHU216HW,2013-11-10 13:00:00,
2013-11-10 07:05:00,31.5,18.8,30.25,WSW,248,1.3,1.3,59,0.00,,,0.00,WUHU216HW,2013-11-10 13:05:00,
2013-11-10 07:06:00,31.5,18.8,30.25,WSW,248,1.3,1.3,59,0.00,,,0.00,WUHU216HW,2013-11-10 13:06:00,
2013-11-10 07:30:00,32.2,19.1,30.25,SW,225,1.8,1.8,58,0.00,,,0.00,WUHU216HW,2013-11-10 13:30:00,
2013-11-10 07:35:00,32.0,18.9,30.25,SW,225,2.0,2.0,58,0.00,,,0.00,WUHU216HW,2013-11-10 13:35:00,
2013-11-10 07:36:00,32.0,18.9,30.25,SW,225,2.0,2.0,58,0.00,,,0.00,WUHU216HW,2013-11-10 13:36:00,
2013-11-10 08:00:00,33.8,21.0,30.26,West,270,3.4,3.4,59,0.00,,,0.00,WUHU216HW,2013-11-10 14:00:00,
2013-11-10 08:05:00,33.7,20.8,30.26,WSW,248,3.6,3.6,59,0.00,,,0.00,WUHU216HW,2013-11-10 14:05:00,
2013-11-10 08:06:00,33.7,20.8,30.26,WSW,248,3.6,3.6,59,0.00,,,0.00,WUHU216HW,2013-11-10 14:06:00,
2013-11-10 08:10:00,33.7,20.8,30.26,WSW,248,3.6,3.6,59,0.00,,,0.00,WUHU216HW,2013-11-10 14:10:00,
2013-11-10 08:30:00,35.1,22.7,30.27,WSW,248,4.7,4.7,60,0.00,,,0.00,WUHU216HW,2013-11-10 14:30:00,
2013-11-10 08:31:00,35.1,22.7,30.27,WSW,248,4.7,4.7,60,0.00,,,0.00,WUHU216HW,2013-11-10 14:31:00,
2013-11-10 08:35:00,35.1,22.7,30.27,WSW,248,4.7,4.7,60,0.00,,,0.00,WUHU216HW,2013-11-10 14:35:00,
2013-11-10 08:36:00,35.1,22.7,30.27,WSW,248,4.7,4.7,60,0.00,,,0.00,WUHU216HW,2013-11-10 14:36:00,
2013-11-10 09:00:00,36.2,23.7,30.26,WSW,248,3.8,3.8,60,0.00,,,0.00,WUHU216HW,2013-11-10 15:00:00,
2013-11-10 09:05:00,36.4,23.9,30.26,West,270,5.8,5.8,60,0.00,,,0.00,WUHU216HW,2013-11-10 15:05:00,
2013-11-10 09:06:00,36.4,23.9,30.26,West,270,5.8,5.8,60,0.00,,,0.00,WUHU216HW,2013-11-10 15:06:00,
2013-11-10 09:10:00,36.4,23.9,30.26,West,270,5.8,5.8,60,0.00,,,0.00,WUHU216HW,2013-11-10 15:10:00,
2013-11-10 09:30:00,37.6,25.4,30.25,WSW,248,6.5,6.5,61,0.00,,,0.00,WUHU216HW,2013-11-10 15:30:00,
2013-11-10 09:31:00,37.6,25.4,30.25,WSW,248,6.5,6.5,61,0.00,,,0.00,WUHU216HW,2013-11-10 15:31:00,
2013-11-10 09:32:00,37.6,25.0,30.25,WSW,248,6.9,6.9,60,0.00,,,0.00,WUHU216HW,2013-11-10 15:32:00,
2013-11-10 09:36:00,37.6,25.0,30.25,WSW,248,6.9,6.9,60,0.00,,,0.00,WUHU216HW,2013-11-10 15:36:00,
2013-11-10 09:37:00,37.6,25.0,30.25,WSW,248,6.9,6.9,60,0.00,,,0.00,WUHU216HW,2013-11-10 15:37:00,
2013-11-10 10:00:00,38.3,26.0,30.25,South,180,5.4,5.4,61,0.00,,,0.00,WUHU216HW,2013-11-10 16:00:00,
2013-11-10 10:05:00,38.3,26.0,30.25,SW,225,6.5,6.5,61,0.00,,,0.00,WUHU216HW,2013-11-10 16:05:00,
2013-11-10 10:06:00,38.3,26.0,30.25,SW,225,6.5,6.5,61,0.00,,,0.00,WUHU216HW,2013-11-10 16:06:00,
2013-11-10 10:30:00,39.6,26.8,30.25,South,180,8.1,8.1,60,0.00,,,0.00,WUHU216HW,2013-11-10 16:30:00,
2013-11-10 10:35:00,39.6,26.8,30.25,SSW,203,6.9,8.1,60,0.00,,,0.00,WUHU216HW,2013-11-10 16:35:00,
2013-11-10 10:36:00,39.6,26.8,30.25,SSW,203,6.9,8.1,60,0.00,,,0.00,WUHU216HW,2013-11-10 16:36:00,
2013-11-10 10:40:00,39.6,26.8,30.25,SSW,203,6.9,6.9,60,0.00,,,0.00,WUHU216HW,2013-11-10 16:40:00,
2013-11-10 11:00:00,39.6,26.8,30.25,WSW,248,7.8,7.8,60,0.00,,,0.00,WUHU216HW,2013-11-10 17:00:00,
2013-11-10 11:01:00,39.6,26.8,30.25,WSW,248,7.3,7.8,60,0.00,,,0.00,WUHU216HW,2013-11-10 17:01:00,
2013-11-10 11:05:00,39.6,26.8,30.25,WSW,248,6.3,7.8,60,0.00,,,0.00,WUHU216HW,2013-11-10 17:05:00,
2013-11-10 11:06:00,39.6,26.8,30.25,WSW,248,6.3,7.8,60,0.00,,,0.00,WUHU216HW,2013-11-10 17:06:00,
2013-11-10 11:10:00,39.6,26.8,30.25,WSW,248,6.3,7.8,60,0.00,,,0.00,WUHU216HW,2013-11-10 17:10:00,
2013-11-10 11:30:00,40.3,27.5,30.23,South,180,7.6,7.6,60,0.00,,,0.00,WUHU216HW,2013-11-10 17:30:00,
2013-11-10 11:31:00,40.3,27.5,30.23,SSW,193,7.2,7.6,60,0.00,,,0.00,WUHU216HW,2013-11-10 17:31:00,
2013-11-10 11:35:00,40.3,27.5,30.23,SW,225,6.3,7.6,60,0.00,,,0.00,WUHU216HW,2013-11-10 17:35:00,
2013-11-10 11:36:00,40.3,27.5,30.23,SW,225,6.3,7.6,60,0.00,,,0.00,WUHU216HW,2013-11-10 17:36:00,
2013-11-10 12:00:00,40.3,27.5,30.22,SSE,158,7.8,7.8,60,0.00,,,0.00,WUHU216HW,2013-11-10 18:00:00,
2013-11-10 12:05:00,40.3,27.5,30.22,SSE,158,7.8,7.8,60,0.00,,,0.00,WUHU216HW,2013-11-10 18:05:00,
2013-11-10 12:10:00,40.3,27.5,30.22,SSE,158,7.8,7.8,60,0.00,,,0.00,WUHU216HW,2013-11-10 18:10:00,
2013-11-10 12:30:00,41.8,28.4,30.21,SSW,203,8.5,8.5,59,0.00,,,0.00,WUHU216HW,2013-11-10 18:30:00,
2013-11-10 12:35:00,41.8,28.4,30.21,WSW,248,7.4,8.5,59,0.00,,,0.00,WUHU216HW,2013-11-10 18:35:00,
2013-11-10 12:36:00,41.8,28.4,30.21,WSW,248,7.4,8.5,59,0.00,,,0.00,WUHU216HW,2013-11-10 18:36:00,
2013-11-10 12:40:00,41.8,28.4,30.21,WSW,248,7.4,7.4,59,0.00,,,0.00,WUHU216HW,2013-11-10 18:40:00,
2013-11-10 13:00:00,41.2,28.5,30.19,WSW,248,3.8,3.8,60,0.00,,,0.00,WUHU216HW,2013-11-10 19:00:00,
2013-11-10 13:05:00,41.2,28.5,30.19,South,180,4.5,4.5,60,0.00,,,0.00,WUHU216HW,2013-11-10 19:05:00,
2013-11-10 13:30:00,41.0,28.3,30.18,WSW,248,5.4,5.4,60,0.00,,,0.00,WUHU216HW,2013-11-10 19:30:00,
2013-11-10 13:31:00,41.0,28.3,30.18,WSW,248,6.0,6.0,60,0.00,,,0.00,WUHU216HW,2013-11-10 19:31:00,
2013-11-10 13:35:00,41.0,28.3,30.18,WSW,248,6.0,6.0,60,0.00,,,0.00,WUHU216HW,2013-11-10 19:35:00,
2013-11-10 13:36:00,41.0,28.3,30.18,WSW,248,6.0,6.0,60,0.00,,,0.00,WUHU216HW,2013-11-10 19:36:00,
2013-11-10 14:00:00,41.6,28.7,30.17,SSW,203,5.6,5.6,60,0.00,,,0.00,WUHU216HW,2013-11-10 20:00:00,
2013-11-10 14:05:00,41.4,28.6,30.17,SW,225,7.4,7.4,60,0.00,,,0.00,WUHU216HW,2013-11-10 20:05:00,
2013-11-10 14:06:00,41.4,28.6,30.17,SW,225,7.4,7.4,60,0.00,,,0.00,WUHU216HW,2013-11-10 20:06:00,
2013-11-10 14:10:00,41.4,28.6,30.17,SW,225,7.4,7.4,60,0.00,,,0.00,WUHU216HW,2013-11-10 20:10:00,
2013-11-10 14:30:00,40.7,28.3,30.16,SSW,203,6.3,6.3,61,0.00,,,0.00,WUHU216HW,2013-11-10 20:30:00,
2013-11-10 14:31:00,40.5,28.1,30.16,SW,225,8.3,8.3,61,0.00,,,0.00,WUHU216HW,2013-11-10 20:31:00,
2013-11-10 14:35:00,40.5,28.1,30.16,SW,225,8.3,8.3,61,0.00,,,0.00,WUHU216HW,2013-11-10 20:35:00,
2013-11-10 14:36:00,40.5,28.1,30.16,SW,225,8.3,8.3,61,0.00,,,0.00,WUHU216HW,2013-11-10 20:36:00,
2013-11-10 15:00:00,39.8,27.7,30.15,SSW,203,5.1,5.1,62,0.00,,,0.00,WUHU216HW,2013-11-10 21:00:00,
2013-11-10 15:01:00,39.8,27.4,30.15,SSW,203,5.1,5.1,61,0.00,,,0.00,WUHU216HW,2013-11-10 21:01:00,
2013-11-10 15:05:00,39.8,27.4,30.15,SSW,203,5.1,5.1,61,0.00,,,0.00,WUHU216HW,2013-11-10 21:05:00,
2013-11-10 15:06:00,39.8,27.4,30.15,SSW,203,5.1,5.1,61,0.00,,,0.00,WUHU216HW,2013-11-10 21:06:00,
2013-11-10 15:10:00,39.8,27.4,30.15,SSW,203,5.1,5.1,61,0.00,,,0.00,WUHU216HW,2013-11-10 21:10:00,
2013-11-10 15:30:00,39.4,27.0,30.13,South,180,6.9,6.9,61,0.00,,,0.00,WUHU216HW,2013-11-10 21:30:00,
2013-11-10 15:35:00,39.4,27.0,30.13,SSW,203,8.3,8.3,61,0.00,,,0.00,WUHU216HW,2013-11-10 21:35:00,
2013-11-10 15:36:00,39.4,27.0,30.13,SSW,203,8.3,8.3,61,0.00,,,0.00,WUHU216HW,2013-11-10 21:36:00,
2013-11-10 15:40:00,39.4,27.0,30.13,SSW,203,8.3,8.3,61,0.00,,,0.00,WUHU216HW,2013-11-10 21:40:00,
2013-11-10 16:00:00,38.9,26.9,30.13,SSW,203,7.2,7.2,62,0.00,,,0.00,WUHU216HW,2013-11-10 22:00:00,
2013-11-10 16:01:00,38.9,26.6,30.13,SSW,210,6.8,7.2,61,0.00,,,0.00,WUHU216HW,2013-11-10 22:01:00,
2013-11-10 16:05:00,38.9,26.6,30.13,SSW,203,6.0,7.2,61,0.00,,,0.00,WUHU216HW,2013-11-10 22:05:00,
2013-11-10 16:06:00,38.9,26.6,30.13,SSW,203,6.0,7.2,61,0.00,,,0.00,WUHU216HW,2013-11-10 22:06:00,
2013-11-10 16:30:00,38.2,25.8,30.12,WSW,248,5.4,5.4,61,0.00,,,0.00,WUHU216HW,2013-11-10 22:30:00,
2013-11-10 16:31:00,38.2,25.8,30.12,SW,225,6.9,6.9,61,0.00,,,0.00,WUHU216HW,2013-11-10 22:31:00,
2013-11-10 16:35:00,38.2,25.8,30.12,SW,225,6.9,6.9,61,0.00,,,0.00,WUHU216HW,2013-11-10 22:35:00,
2013-11-10 16:36:00,38.2,25.8,30.12,SW,225,6.9,6.9,61,0.00,,,0.00,WUHU216HW,2013-11-10 22:36:00,
2013-11-10 16:40:00,38.2,25.8,30.12,SW,225,6.9,6.9,61,0.00,,,0.00,WUHU216HW,2013-11-10 22:40:00,
2013-11-10 17:00:00,37.8,25.6,30.12,SSE,158,4.7,4.7,61,0.00,,,0.00,WUHU216HW,2013-11-10 23:00:00,
2013-11-10 17:05:00,37.8,25.2,30.12,SSW,203,4.9,4.9,60,0.00,,,0.00,WUHU216HW,2013-11-10 23:05:00,
2013-11-10 17:06:00,37.8,25.2,30.12,SSW,203,4.9,4.9,60,0.00,,,0.00,WUHU216HW,2013-11-10 23:06:00,
2013-11-10 17:10:00,37.8,25.2,30.12,SSW,203,4.9,4.9,60,0.00,,,0.00,WUHU216HW,2013-11-10 23:10:00,
2013-11-10 17:30:00,37.6,24.6,30.11,South,180,6.0,6.0,59,0.00,,,0.00,WUHU216HW,2013-11-10 23:30:00,
2013-11-10 17:35:00,37.4,24.4,30.11,South,180,5.8,6.0,59,0.00,,,0.00,WUHU216HW,2013-11-10 23:35:00,
2013-11-10 17:36:00,37.4,24.4,30.11,South,180,5.8,6.0,59,0.00,,,0.00,WUHU216HW,2013-11-10 23:36:00,
2013-11-10 17:40:00,37.4,24.4,30.11,South,180,5.8,6.0,59,0.00,,,0.00,WUHU216HW,2013-11-10 23:40:00,
2013-11-10 18:00:00,37.4,23.9,30.09,SW,225,4.0,4.0,58,0.00,,,0.00,WUHU216HW,2013-11-11 00:00:00,
2013-11-10 18:05:00,37.3,23.9,30.10,SW,225,4.0,4.0,58,0.00,,,0.00,WUHU216HW,2013-11-11 00:05:00,
2013-11-10 18:06:00,37.3,23.9,30.10,SW,225,4.0,4.0,58,0.00,,,0.00,WUHU216HW,2013-11-11 00:06:00,
2013-11-10 18:30:00,37.3,23.0,30.09,SW,225,5.6,5.6,56,0.00,,,0.00,WUHU216HW,2013-11-11 00:30:00,
2013-11-10 18:31:00,37.3,23.0,30.09,West,270,6.9,6.9,56,0.00,,,0.00,WUHU216HW,2013-11-11 00:31:00,
2013-11-10 18:35:00,37.3,23.0,30.09,West,270,6.9,6.9,56,0.00,,,0.00,WUHU216HW,2013-11-11 00:35:00,
2013-11-10 18:36:00,37.3,23.0,30.09,West,270,6.9,6.9,56,0.00,,,0.00,WUHU216HW,2013-11-11 00:36:00,
2013-11-10 18:37:00,37.3,23.0,30.09,West,270,6.9,6.9,56,0.00,,,0.00,WUHU216HW,2013-11-11 00:37:00,
2013-11-10 19:00:00,37.3,23.0,30.09,South,180,2.0,2.0,56,0.00,,,0.00,WUHU216HW,2013-11-11 01:00:00,
2013-11-10 19:05:00,37.1,22.8,30.09,SSW,203,4.0,4.0,56,0.00,,,0.00,WUHU216HW,2013-11-11 01:05:00,
2013-11-10 19:06:00,37.1,22.8,30.09,SSW,203,4.0,4.0,56,0.00,,,0.00,WUHU216HW,2013-11-11 01:06:00,
2013-11-10 19:10:00,37.1,22.8,30.09,SSW,203,4.0,4.0,56,0.00,,,0.00,WUHU216HW,2013-11-11 01:10:00,
2013-11-10 19:30:00,37.1,22.8,30.08,SSE,158,3.4,3.4,56,0.00,,,0.00,WUHU216HW,2013-11-11 01:30:00,
2013-11-10 19:31:00,37.1,22.3,30.08,South,179,3.2,3.4,55,0.00,,,0.00,WUHU216HW,2013-11-11 01:31:00,
2013-11-10 19:35:00,37.1,22.3,30.08,WSW,248,2.7,3.4,55,0.00,,,0.00,WUHU216HW,2013-11-11 01:35:00,
2013-11-10 19:36:00,37.1,22.3,30.08,WSW,248,2.7,3.4,55,0.00,,,0.00,WUHU216HW,2013-11-11 01:36:00,
2013-11-10 19:37:00,37.1,22.3,30.08,WSW,248,2.7,3.4,55,0.00,,,0.00,WUHU216HW,2013-11-11 01:37:00,
2013-11-10 20:00:00,37.1,22.0,30.07,West,270,1.8,1.8,54,0.00,,,0.00,WUHU216HW,2013-11-11 02:00:00,
2013-11-10 20:05:00,37.1,22.0,30.07,WSW,248,1.1,1.8,54,0.00,,,0.00,WUHU216HW,2013-11-11 02:05:00,
2013-11-10 20:30:00,37.4,22.7,30.07,South,180,4.7,4.7,55,0.00,,,0.00,WUHU216HW,2013-11-11 02:30:00,
2013-11-10 20:31:00,37.4,22.7,30.07,SSW,203,4.7,4.7,55,0.00,,,0.00,WUHU216HW,2013-11-11 02:31:00,
2013-11-10 20:35:00,37.4,22.7,30.07,SSW,203,4.7,4.7,55,0.00,,,0.00,WUHU216HW,2013-11-11 02:35:00,
2013-11-10 20:36:00,37.4,22.7,30.07,SSW,203,4.7,4.7,55,0.00,,,0.00,WUHU216HW,2013-11-11 02:36:00,
2013-11-10 20:37:00,37.4,22.7,30.07,SSW,203,4.7,4.7,55,0.00,,,0.00,WUHU216HW,2013-11-11 02:37:00,
2013-11-10 21:00:00,37.4,22.7,30.07,West,270,5.1,5.1,55,0.00,,,0.00,WUHU216HW,2013-11-11 03:00:00,
2013-11-10 21:01:00,37.4,22.2,30.08,West,270,5.1,5.1,54,0.00,,,0.00,WUHU216HW,2013-11-11 03:01:00,
2013-11-10 21:05:00,37.4,22.2,30.08,West,270,5.1,5.1,54,0.00,,,0.00,WUHU216HW,2013-11-11 03:05:00,
2013-11-10 21:06:00,37.4,22.2,30.08,West,270,5.1,5.1,54,0.00,,,0.00,WUHU216HW,2013-11-11 03:06:00,
2013-11-10 21:30:00,37.3,22.1,30.07,NW,315,4.0,4.0,54,0.00,,,0.00,WUHU216HW,2013-11-11 03:30:00,
2013-11-10 21:31:00,37.3,22.1,30.07,WNW,293,4.0,4.0,54,0.00,,,0.00,WUHU216HW,2013-11-11 03:31:00,
2013-11-10 21:35:00,37.3,22.1,30.07,WNW,293,4.0,4.0,54,0.00,,,0.00,WUHU216HW,2013-11-11 03:35:00,
2013-11-10 21:36:00,37.3,22.1,30.07,WNW,293,4.0,4.0,54,0.00,,,0.00,WUHU216HW,2013-11-11 03:36:00,
2013-11-10 21:40:00,37.3,22.1,30.07,WNW,293,4.0,4.0,54,0.00,,,0.00,WUHU216HW,2013-11-11 03:40:00,
2013-11-10 22:00:00,37.1,21.5,30.07,West,270,4.0,4.0,53,0.00,,,0.00,WUHU216HW,2013-11-11 04:00:00,
2013-11-10 22:05:00,37.1,21.5,30.07,West,270,5.4,5.4,53,0.00,,,0.00,WUHU216HW,2013-11-11 04:05:00,
2013-11-10 22:30:00,36.7,19.9,30.07,WNW,293,4.5,4.5,50,0.00,,,0.00,WUHU216HW,2013-11-11 04:30:00,
2013-11-10 22:31:00,36.7,19.9,30.07,WNW,293,4.2,4.5,50,0.00,,,0.00,WUHU216HW,2013-11-11 04:31:00,
2013-11-10 22:36:00,36.7,19.9,30.07,WNW,293,4.0,4.5,50,0.00,,,0.00,WUHU216HW,2013-11-11 04:36:00,
2013-11-10 22:37:00,36.7,19.9,30.07,WNW,293,4.0,4.5,50,0.00,,,0.00,WUHU216HW,2013-11-11 04:37:00,
2013-11-10 22:38:00,36.7,19.9,30.07,WNW,293,4.0,4.5,50,0.00,,,0.00,WUHU216HW,2013-11-11 04:38:00,
2013-11-10 23:00:00,36.4,19.5,30.07,West,270,5.4,5.4,50,0.00,,,0.00,WUHU216HW,2013-11-11 05:00:00,
2013-11-10 23:01:00,36.5,19.7,30.07,WSW,248,6.0,6.0,50,0.00,,,0.00,WUHU216HW,2013-11-11 05:01:00,
2013-11-10 23:02:00,36.5,19.7,30.07,WSW,248,6.0,6.0,50,0.00,,,0.00,WUHU216HW,2013-11-11 05:02:00,
2013-11-10 23:06:00,36.5,19.7,30.07,WSW,248,6.0,6.0,50,0.00,,,0.00,WUHU216HW,2013-11-11 05:06:00,
2013-11-10 23:07:00,36.5,19.7,30.07,WSW,248,6.0,6.0,50,0.00,,,0.00,WUHU216HW,2013-11-11 05:07:00,
2013-11-10 23:08:00,36.5,19.7,30.07,WSW,248,6.0,6.0,50,0.00,,,0.00,WUHU216HW,2013-11-11 05:08:00,
2013-11-10 23:30:00,36.4,20.0,30.07,West,270,5.8,5.8,51,0.00,,,0.00,WUHU216HW,2013-11-11 05:30:00,
2013-11-10 23:31:00,36.4,20.4,30.07,West,270,5.8,5.8,52,0.00,,,0.00,WUHU216HW,2013-11-11 05:31:00,
2013-11-10 23:35:00,36.4,20.4,30.07,West,270,5.8,5.8,52,0.00,,,0.00,WUHU216HW,2013-11-11 05:35:00,
2013-11-10 23:36:00,36.4,20.4,30.07,West,270,5.8,5.8,52,0.00,,,0.00,WUHU216HW,2013-11-11 05:36:00,